| time (UTC) | temp C | wind direction | speed KPH | gust KPH | rain 1hr cm | rain 24hr cm | rain mn cm | humidity % | barometer mb |
| 20260506092004 | 23 | 0 | 0.0 | 0.0 | 0.00 | 0.00 | 0.00 | 89 | 1008.8 |
| 20260506091504 | 23 | 0 | 0.0 | 0.0 | 0.00 | 0.00 | 0.00 | 89 | 1008.7 |
| 20260506090504 | 23 | 0 | 0.0 | 1.6 | 0.00 | 0.00 | 0.00 | 89 | 1008.5 |
| 20260506085504 | 23 | 0 | 0.0 | 4.8 | 0.00 | 0.00 | 0.00 | 89 | 1008.3 |
| 20260506085004 | 23 | 0 | 0.0 | 4.8 | 0.00 | 0.00 | 0.00 | 89 | 1008.5 |
| 20260506084504 | 23 | 0 | 0.0 | 8.0 | 0.00 | 0.00 | 0.00 | 89 | 1008.4 |
| 20260506083504 | 23 | 137 | 1.6 | 6.4 | 0.00 | 0.00 | 0.00 | 89 | 1008.5 |
| 20260506083004 | 23 | 132 | 1.6 | 6.4 | 0.00 | 0.00 | 0.00 | 89 | 1008.5 |
| 20260506082004 | 23 | 217 | 1.6 | 4.8 | 0.00 | 0.00 | 0.00 | 89 | 1008.4 |
| 20260506081504 | 23 | 224 | 1.6 | 8.0 | 0.00 | 0.00 | 0.00 | 89 | 1008.3 |
| 20260506080504 | 23 | 164 | 1.6 | 8.0 | 0.00 | 0.00 | 0.00 | 89 | 1008.5 |
| 20260506073504 | 23 | 201 | 1.6 | 6.4 | 0.00 | 0.00 | 0.00 | 89 | 1008.8 |
| 20260506073004 | 23 | 198 | 1.6 | 11.3 | 0.00 | 0.00 | 0.00 | 89 | 1008.7 |
| 20260506072504 | 23 | 223 | 1.6 | 11.3 | 0.00 | 0.00 | 0.00 | 89 | 1008.8 |
| 20260506072004 | 23 | 226 | 1.6 | 9.7 | 0.00 | 0.00 | 0.00 | 89 | 1008.9 |
| 20260506071503 | 23 | 208 | 1.6 | 9.7 | 0.00 | 0.00 | 0.00 | 89 | 1008.9 |
| 20260506071004 | 23 | 199 | 1.6 | 9.7 | 0.00 | 0.00 | 0.00 | 89 | 1008.8 |
| 20260506070504 | 23 | 206 | 3.2 | 11.3 | 0.00 | 0.00 | 0.00 | 89 | 1008.8 |
| 20260506062504 | 23 | 209 | 3.2 | 9.7 | 0.00 | 0.00 | 0.00 | 88 | 1008.8 |
| 20260506062003 | 23 | 204 | 1.6 | 11.3 | 0.00 | 0.00 | 0.00 | 88 | 1008.8 |
| 20260506061504 | 23 | 205 | 1.6 | 11.3 | 0.00 | 0.00 | 0.00 | 88 | 1008.8 |
| 20260506061004 | 23 | 241 | 1.6 | 14.5 | 0.00 | 0.00 | 0.00 | 88 | 1008.7 |
| 20260506060504 | 23 | 250 | 1.6 | 14.5 | 0.00 | 0.00 | 0.00 | 88 | 1008.7 |
| 20260506051004 | 24 | 213 | 1.6 | 9.7 | 0.00 | 0.00 | 0.00 | 88 | 1008.9 |
| 20260506050504 | 24 | 225 | 1.6 | 11.3 | 0.00 | 0.00 | 0.00 | 88 | 1009.0 |
| 20260506045004 | 24 | 200 | 1.6 | 6.4 | 0.00 | 0.00 | 0.00 | 88 | 1008.8 |
| 20260506044504 | 24 | 190 | 1.6 | 6.4 | 0.00 | 0.00 | 0.00 | 88 | 1008.9 |
| 20260506044004 | 24 | 190 | 1.6 | 8.0 | 0.00 | 0.00 | 0.00 | 88 | 1008.8 |
| 20260506043505 | 24 | 192 | 1.6 | 8.0 | 0.00 | 0.00 | 0.00 | 88 | 1008.8 |
| 20260506043004 | 24 | 193 | 1.6 | 8.0 | 0.00 | 0.00 | 0.00 | 88 | 1008.7 |
| 20260506042504 | 24 | 186 | 1.6 | 8.0 | 0.00 | 0.00 | 0.00 | 88 | 1008.6 |
| 20260506042004 | 24 | 174 | 1.6 | 8.0 | 0.00 | 0.00 | 0.00 | 88 | 1008.7 |
| 20260506041504 | 24 | 175 | 1.6 | 8.0 | 0.00 | 0.00 | 0.00 | 88 | 1008.7 |
| 20260506041004 | 24 | 176 | 1.6 | 11.3 | 0.00 | 0.00 | 0.00 | 88 | 1008.7 |
| 20260506040504 | 24 | 175 | 1.6 | 11.3 | 0.00 | 0.00 | 0.00 | 88 | 1008.5 |
| 20260506040004 | 24 | 0 | 0.0 | 4.8 | 0.00 | 0.00 | 0.00 | 88 | 1008.4 |
| 20260506035004 | 24 | 177 | 1.6 | 9.7 | 0.00 | 0.00 | 0.00 | 88 | 1008.4 |
| 20260506034504 | 24 | 0 | 0.0 | 9.7 | 0.00 | 0.00 | 0.00 | 88 | 1008.2 |
| 20260506034004 | 25 | 0 | 0.0 | 8.0 | 0.00 | 0.00 | 0.00 | 88 | 1008.2 |
| 20260506033504 | 25 | 175 | 1.6 | 6.4 | 0.00 | 0.00 | 0.00 | 87 | 1008.2 |
| 20260506033004 | 25 | 173 | 1.6 | 6.4 | 0.00 | 0.00 | 0.00 | 87 | 1008.3 |
| 20260506032504 | 25 | 171 | 1.6 | 6.4 | 0.00 | 0.00 | 0.00 | 87 | 1008.2 |
| 20260506032004 | 25 | 0 | 0.0 | 6.4 | 0.00 | 0.00 | 0.00 | 87 | 1008.2 |
| 20260506031504 | 25 | 159 | 1.6 | 8.0 | 0.00 | 0.00 | 0.00 | 87 | 1008.1 |
| 20260506031004 | 25 | 131 | 1.6 | 8.0 | 0.00 | 0.00 | 0.00 | 87 | 1008.0 |
| 20260506030504 | 25 | 87 | 1.6 | 4.8 | 0.00 | 0.00 | 0.00 | 87 | 1008.0 |
| 20260506030004 | 25 | 86 | 1.6 | 11.3 | 0.00 | 0.00 | 0.00 | 86 | 1008.0 |
| 20260506024504 | 25 | 0 | 0.0 | 3.2 | 0.00 | 0.00 | 0.00 | 85 | 1007.7 |
| 20260506024004 | 25 | 0 | 0.0 | 3.2 | 0.00 | 0.00 | 0.00 | 85 | 1007.6 |
| 20260506023504 | 25 | 0 | 0.0 | 1.6 | 0.00 | 0.00 | 0.00 | 85 | 1007.5 |
| 20260506023004 | 25 | 0 | 0.0 | 1.6 | 0.00 | 0.00 | 0.00 | 85 | 1007.4 |
| 20260506022504 | 25 | 0 | 0.0 | 1.6 | 0.00 | 0.00 | 0.00 | 85 | 1007.3 |
| 20260506022004 | 25 | 0 | 0.0 | 1.6 | 0.00 | 0.00 | 0.00 | 85 | 1007.2 |
| 20260506021504 | 25 | 0 | 0.0 | 3.2 | 0.00 | 0.00 | 0.00 | 84 | 1007.1 |
| 20260506021004 | 25 | 0 | 0.0 | 3.2 | 0.00 | 0.00 | 0.00 | 84 | 1007.1 |
| 20260506020504 | 25 | 0 | 0.0 | 3.2 | 0.00 | 0.00 | 0.00 | 84 | 1007.0 |
| 20260506020004 | 25 | 0 | 0.0 | 4.8 | 0.00 | 0.00 | 0.00 | 84 | 1006.8 |
| 20260506015504 | 25 | 0 | 0.0 | 4.8 | 0.00 | 0.00 | 0.00 | 83 | 1006.7 |
| 20260506015004 | 26 | 0 | 0.0 | 1.6 | 0.00 | 0.00 | 0.00 | 83 | 1006.8 |
| 20260506014504 | 26 | 0 | 0.0 | 1.6 | 0.00 | 0.00 | 0.00 | 83 | 1006.7 |
| 20260506014003 | 26 | 0 | 0.0 | 1.6 | 0.00 | 0.00 | 0.00 | 82 | 1006.7 |
| 20260506013504 | 26 | 0 | 0.0 | 1.6 | 0.00 | 0.00 | 0.00 | 82 | 1006.7 |
| 20260506013004 | 26 | 0 | 0.0 | 1.6 | 0.00 | 0.00 | 0.00 | 82 | 1006.8 |
| 20260506012504 | 26 | 0 | 0.0 | 1.6 | 0.00 | 0.00 | 0.00 | 81 | 1006.7 |
| 20260506012004 | 26 | 0 | 0.0 | 1.6 | 0.00 | 0.00 | 0.00 | 81 | 1006.6 |
| 20260506011004 | 26 | 0 | 0.0 | 4.8 | 0.00 | 0.00 | 0.00 | 80 | 1006.6 |
| 20260506010503 | 26 | 0 | 0.0 | 4.8 | 0.00 | 0.00 | 0.00 | 80 | 1006.6 |
| 20260506010004 | 27 | 0 | 0.0 | 4.8 | 0.00 | 0.00 | 0.00 | 79 | 1006.7 |
| 20260506005504 | 27 | 0 | 0.0 | 3.2 | 0.00 | 0.00 | 0.00 | 79 | 1006.7 |
| 20260506004505 | 27 | 0 | 0.0 | 3.2 | 0.00 | 0.00 | 0.00 | 78 | 1006.7 |
| 20260506004004 | 27 | 0 | 0.0 | 1.6 | 0.00 | 0.00 | 0.00 | 78 | 1006.7 |
| 20260506003504 | 27 | 0 | 0.0 | 4.8 | 0.00 | 0.00 | 0.00 | 77 | 1006.7 |
| 20260506003003 | 27 | 0 | 0.0 | 4.8 | 0.00 | 0.00 | 0.00 | 77 | 1006.7 |
| 20260506002504 | 27 | 0 | 0.0 | 3.2 | 0.00 | 0.00 | 0.00 | 77 | 1006.7 |
| 20260506002004 | 27 | 0 | 0.0 | 3.2 | 0.00 | 0.00 | 0.00 | 76 | 1006.7 |
| 20260506001504 | 27 | 0 | 0.0 | 3.2 | 0.00 | 0.00 | 0.00 | 76 | 1006.7 |
| 20260506001004 | 27 | 0 | 0.0 | 4.8 | 0.00 | 0.00 | 0.00 | 76 | 1006.6 |
| 20260506000504 | 27 | 0 | 0.0 | 6.4 | 0.00 | 0.00 | 0.00 | 76 | 1006.7 |
| 20260506000004 | 27 | 178 | 1.6 | 8.0 | 0.00 | 0.00 | 0.00 | 76 | 1006.7 |
| 20260505235504 | 27 | 0 | 0.0 | 8.0 | 0.00 | 0.00 | 0.00 | 75 | 1006.7 |
| 20260505235003 | 27 | 169 | 1.6 | 8.0 | 0.00 | 0.00 | 0.00 | 76 | 1006.4 |
| 20260505234504 | 27 | 177 | 1.6 | 8.0 | 0.00 | 0.00 | 0.00 | 75 | 1006.4 |
| 20260505233504 | 27 | 221 | 1.6 | 9.7 | 0.00 | 0.00 | 0.00 | 75 | 1006.3 |
| 20260505233003 | 27 | 196 | 1.6 | 9.7 | 0.00 | 0.00 | 0.00 | 75 | 1006.3 |
| 20260505232503 | 27 | 175 | 1.6 | 6.4 | 0.00 | 0.00 | 0.00 | 75 | 1006.2 |
| 20260505232004 | 28 | 156 | 1.6 | 6.4 | 0.00 | 0.00 | 0.00 | 75 | 1006.2 |
| 20260505231504 | 28 | 186 | 1.6 | 8.0 | 0.00 | 0.00 | 0.00 | 75 | 1006.2 |
| 20260505231004 | 28 | 206 | 1.6 | 11.3 | 0.00 | 0.00 | 0.00 | 74 | 1006.2 |
| 20260505230504 | 28 | 198 | 1.6 | 11.3 | 0.00 | 0.00 | 0.00 | 74 | 1006.2 |
| 20260505225504 | 28 | 209 | 1.6 | 11.3 | 0.00 | 0.00 | 0.00 | 73 | 1006.1 |
| 20260505225003 | 28 | 202 | 1.6 | 8.0 | 0.00 | 0.00 | 0.00 | 74 | 1006.1 |
| 20260505224004 | 28 | 335 | 1.6 | 8.0 | 0.00 | 0.00 | 0.00 | 73 | 1006.2 |
| 20260505223504 | 28 | 10 | 1.6 | 6.4 | 0.00 | 0.00 | 0.00 | 72 | 1006.1 |
| 20260505223004 | 28 | 176 | 1.6 | 9.7 | 0.00 | 0.00 | 0.00 | 71 | 1006.1 |
| 20260505222504 | 28 | 186 | 1.6 | 11.3 | 0.00 | 0.00 | 0.00 | 72 | 1006.0 |
| 20260505220504 | 28 | 212 | 3.2 | 11.3 | 0.00 | 0.00 | 0.00 | 71 | 1006.2 |
| 20260505220004 | 28 | 205 | 3.2 | 12.9 | 0.00 | 0.00 | 0.00 | 71 | 1006.3 |
| 20260505215504 | 28 | 186 | 1.6 | 12.9 | 0.00 | 0.00 | 0.00 | 71 | 1006.2 |
| 20260505214504 | 28 | 225 | 1.6 | 12.9 | 0.00 | 0.00 | 0.00 | 72 | 1006.6 |
| 20260505214004 | 28 | 198 | 3.2 | 11.3 | 0.00 | 0.00 | 0.00 | 71 | 1006.7 |
| 20260505213504 | 28 | 169 | 3.2 | 11.3 | 0.00 | 0.00 | 0.00 | 72 | 1006.7 |
| 20260505213004 | 28 | 163 | 3.2 | 9.7 | 0.00 | 0.00 | 0.00 | 72 | 1006.6 |
| 20260505212004 | 28 | 197 | 3.2 | 9.7 | 0.00 | 0.00 | 0.00 | 73 | 1006.8 |
| 20260505211003 | 28 | 189 | 3.2 | 9.7 | 0.00 | 0.00 | 0.00 | 75 | 1006.8 |
| 20260505210504 | 28 | 193 | 3.2 | 9.7 | 0.00 | 0.00 | 0.00 | 74 | 1006.8 |
| 20260505210004 | 28 | 187 | 3.2 | 9.7 | 0.00 | 0.00 | 0.00 | 74 | 1006.9 |
| 20260505205504 | 28 | 184 | 1.6 | 8.0 | 0.00 | 0.00 | 0.00 | 74 | 1007.0 |
| 20260505205004 | 28 | 172 | 1.6 | 8.0 | 0.00 | 0.00 | 0.00 | 73 | 1007.0 |
| 20260505204504 | 28 | 163 | 1.6 | 8.0 | 0.00 | 0.00 | 0.00 | 74 | 1007.0 |
| 20260505204004 | 28 | 204 | 1.6 | 9.7 | 0.00 | 0.00 | 0.00 | 73 | 1007.0 |
| 20260505203504 | 28 | 192 | 3.2 | 9.7 | 0.00 | 0.00 | 0.00 | 74 | 1007.1 |
| 20260505203004 | 28 | 191 | 3.2 | 9.7 | 0.00 | 0.00 | 0.00 | 76 | 1007.3 |
| 20260505202504 | 28 | 204 | 3.2 | 9.7 | 0.00 | 0.00 | 0.00 | 75 | 1007.4 |
| 20260505202004 | 28 | 201 | 3.2 | 8.0 | 0.00 | 0.00 | 0.00 | 75 | 1007.5 |
| 20260505201504 | 28 | 207 | 1.6 | 8.0 | 0.00 | 0.00 | 0.00 | 76 | 1007.6 |
| 20260505201004 | 28 | 191 | 1.6 | 11.3 | 0.00 | 0.00 | 0.00 | 76 | 1007.7 |
| 20260505200504 | 27 | 174 | 1.6 | 11.3 | 0.00 | 0.00 | 0.00 | 76 | 1007.7 |
| 20260505200004 | 28 | 216 | 1.6 | 11.3 | 0.00 | 0.00 | 0.00 | 75 | 1007.8 |
| 20260505195504 | 28 | 216 | 1.6 | 6.4 | 0.00 | 0.00 | 0.00 | 76 | 1007.9 |
| 20260505195004 | 27 | 174 | 1.6 | 6.4 | 0.00 | 0.00 | 0.00 | 76 | 1007.9 |
| 20260505194504 | 27 | 163 | 1.6 | 4.8 | 0.00 | 0.00 | 0.00 | 76 | 1008.0 |
| 20260505194003 | 27 | 193 | 1.6 | 4.8 | 0.00 | 0.00 | 0.00 | 76 | 1008.2 |
| 20260505193504 | 27 | 210 | 1.6 | 4.8 | 0.00 | 0.00 | 0.00 | 75 | 1008.3 |
| 20260505193004 | 27 | 202 | 1.6 | 6.4 | 0.00 | 0.00 | 0.00 | 76 | 1008.2 |
| 20260505192503 | 28 | 173 | 1.6 | 6.4 | 0.00 | 0.00 | 0.00 | 76 | 1008.2 |
| 20260505192004 | 28 | 156 | 1.6 | 8.0 | 0.00 | 0.00 | 0.00 | 76 | 1008.2 |
| 20260505191504 | 28 | 163 | 1.6 | 9.7 | 0.00 | 0.00 | 0.00 | 73 | 1008.3 |
| 20260505191003 | 28 | 184 | 1.6 | 9.7 | 0.00 | 0.00 | 0.00 | 76 | 1008.2 |
| 20260505190504 | 28 | 188 | 1.6 | 6.4 | 0.00 | 0.00 | 0.00 | 75 | 1008.3 |
| 20260505190004 | 28 | 193 | 1.6 | 6.4 | 0.00 | 0.00 | 0.00 | 76 | 1008.4 |
| 20260505185504 | 27 | 203 | 1.6 | 8.0 | 0.00 | 0.00 | 0.00 | 76 | 1008.4 |
| 20260505185004 | 27 | 182 | 3.2 | 8.0 | 0.00 | 0.00 | 0.00 | 77 | 1008.5 |
| 20260505183505 | 27 | 198 | 3.2 | 11.3 | 0.00 | 0.00 | 0.00 | 79 | 1008.7 |
| 20260505183003 | 26 | 197 | 3.2 | 11.3 | 0.00 | 0.00 | 0.00 | 77 | 1008.8 |
| 20260505182504 | 26 | 215 | 3.2 | 11.3 | 0.00 | 0.00 | 0.00 | 79 | 1008.8 |
| 20260505182004 | 26 | 200 | 3.2 | 12.9 | 0.00 | 0.00 | 0.00 | 79 | 1008.9 |
| 20260505181503 | 26 | 182 | 3.2 | 12.9 | 0.00 | 0.00 | 0.00 | 81 | 1009.0 |
| 20260505181004 | 26 | 197 | 3.2 | 12.9 | 0.00 | 0.00 | 0.00 | 80 | 1009.0 |
| 20260505180504 | 25 | 224 | 3.2 | 12.9 | 0.00 | 0.00 | 0.00 | 80 | 1009.0 |
| 20260505180003 | 25 | 208 | 3.2 | 11.3 | 0.00 | 0.00 | 0.00 | 82 | 1009.1 |
| 20260505175504 | 25 | 203 | 1.6 | 11.3 | 0.00 | 0.00 | 0.00 | 82 | 1009.2 |
| 20260505174504 | 25 | 195 | 1.6 | 11.3 | 0.00 | 0.00 | 0.00 | 83 | 1009.3 |
| 20260505174003 | 25 | 197 | 1.6 | 11.3 | 0.00 | 0.00 | 0.00 | 84 | 1009.3 |
| 20260505173504 | 24 | 178 | 1.6 | 9.7 | 0.00 | 0.00 | 0.00 | 84 | 1009.3 |
| 20260505173004 | 24 | 191 | 1.6 | 9.7 | 0.00 | 0.00 | 0.00 | 84 | 1009.4 |
| 20260505172503 | 24 | 199 | 1.6 | 9.7 | 0.00 | 0.00 | 0.00 | 84 | 1009.5 |
| 20260505172004 | 24 | 200 | 1.6 | 6.4 | 0.00 | 0.00 | 0.00 | 85 | 1009.4 |
| 20260505171504 | 24 | 192 | 1.6 | 6.4 | 0.00 | 0.00 | 0.00 | 85 | 1009.3 |
| 20260505171003 | 23 | 176 | 1.6 | 11.3 | 0.00 | 0.00 | 0.00 | 86 | 1009.4 |
| 20260505170503 | 23 | 193 | 3.2 | 11.3 | 0.00 | 0.00 | 0.00 | 86 | 1009.5 |
| 20260505170004 | 23 | 207 | 1.6 | 11.3 | 0.00 | 0.00 | 0.00 | 86 | 1009.5 |
| 20260505165504 | 23 | 190 | 1.6 | 9.7 | 0.00 | 0.00 | 0.00 | 86 | 1009.5 |
| 20260505165003 | 23 | 160 | 1.6 | 9.7 | 0.00 | 0.00 | 0.00 | 86 | 1009.5 |
| 20260505163004 | 23 | 179 | 1.6 | 8.0 | 0.00 | 0.00 | 0.00 | 88 | 1009.4 |
| 20260505162504 | 22 | 186 | 1.6 | 12.9 | 0.00 | 0.00 | 0.00 | 88 | 1009.3 |
| 20260505162006 | 22 | 189 | 3.2 | 12.9 | 0.00 | 0.00 | 0.00 | 88 | 1009.4 |
| 20260505161004 | 22 | 197 | 1.6 | 9.7 | 0.00 | 0.00 | 0.00 | 88 | 1009.4 |
| 20260505160504 | 22 | 201 | 1.6 | 9.7 | 0.00 | 0.00 | 0.00 | 88 | 1009.5 |
| 20260505153004 | 22 | 171 | 1.6 | 11.3 | 0.00 | 0.00 | 0.00 | 89 | 1009.6 |
| 20260505152504 | 22 | 167 | 1.6 | 12.9 | 0.00 | 0.00 | 0.00 | 89 | 1009.6 |
| 20260505152004 | 22 | 186 | 3.2 | 12.9 | 0.00 | 0.00 | 0.00 | 89 | 1009.5 |
| 20260505151504 | 22 | 202 | 1.6 | 12.9 | 0.00 | 0.00 | 0.00 | 89 | 1009.4 |
| 20260505151004 | 22 | 201 | 1.6 | 12.9 | 0.00 | 0.00 | 0.00 | 89 | 1009.3 |
| 20260505150503 | 22 | 204 | 1.6 | 8.0 | 0.00 | 0.00 | 0.00 | 89 | 1009.3 |
| 20260505140504 | 21 | 193 | 3.2 | 11.3 | 0.00 | 0.00 | 0.00 | 89 | 1009.0 |
| 20260505125003 | 21 | 182 | 3.2 | 12.9 | 0.00 | 0.00 | 0.00 | 89 | 1008.4 |
| 20260505124504 | 21 | 171 | 3.2 | 12.9 | 0.00 | 0.00 | 0.00 | 89 | 1008.2 |
| 20260505124004 | 21 | 150 | 3.2 | 12.9 | 0.00 | 0.00 | 0.00 | 89 | 1008.1 |
| 20260505123504 | 21 | 171 | 3.2 | 11.3 | 0.00 | 0.00 | 0.00 | 89 | 1008.1 |
| 20260505123003 | 21 | 193 | 1.6 | 11.3 | 0.00 | 0.00 | 0.00 | 89 | 1007.9 |
| 20260505122504 | 21 | 188 | 1.6 | 9.7 | 0.00 | 0.00 | 0.00 | 89 | 1007.9 |
| 20260505122004 | 21 | 185 | 1.6 | 9.7 | 0.00 | 0.00 | 0.00 | 89 | 1007.9 |
| 20260505121503 | 21 | 177 | 1.6 | 8.0 | 0.00 | 0.00 | 0.00 | 89 | 1007.8 |
| 20260505121003 | 21 | 207 | 1.6 | 11.3 | 0.00 | 0.00 | 0.00 | 89 | 1007.8 |
| 20260505120504 | 21 | 201 | 1.6 | 11.3 | 0.00 | 0.00 | 0.00 | 89 | 1007.7 |
| 20260505120004 | 21 | 188 | 1.6 | 11.3 | 0.00 | 0.00 | 0.00 | 89 | 1007.6 |
| 20260505115503 | 21 | 188 | 1.6 | 11.3 | 0.00 | 0.00 | 0.00 | 89 | 1007.5 |
| 20260505114004 | 21 | 160 | 1.6 | 9.7 | 0.00 | 0.00 | 0.00 | 89 | 1007.6 |
| 20260505113503 | 21 | 133 | 1.6 | 9.7 | 0.00 | 0.00 | 0.00 | 89 | 1007.6 |
| 20260505113004 | 21 | 151 | 1.6 | 11.3 | 0.00 | 0.00 | 0.00 | 89 | 1007.8 |
| 20260505112504 | 21 | 177 | 3.2 | 11.3 | 0.00 | 0.00 | 0.00 | 89 | 1007.8 |
| 20260505112004 | 21 | 206 | 3.2 | 11.3 | 0.00 | 0.00 | 0.00 | 89 | 1007.5 |
| 20260505111503 | 21 | 202 | 1.6 | 6.4 | 0.00 | 0.00 | 0.00 | 89 | 1007.4 |
| 20260505111004 | 21 | 191 | 1.6 | 9.7 | 0.00 | 0.00 | 0.00 | 89 | 1007.7 |
| 20260505110504 | 21 | 198 | 1.6 | 11.3 | 0.00 | 0.00 | 0.00 | 89 | 1007.8 |
| 20260505102004 | 21 | 226 | 1.6 | 11.3 | 0.00 | 0.00 | 0.00 | 88 | 1007.8 |
| 20260505101503 | 21 | 208 | 1.6 | 11.3 | 0.00 | 0.00 | 0.00 | 88 | 1008.0 |
| 20260505101004 | 21 | 181 | 1.6 | 11.3 | 0.00 | 0.00 | 0.00 | 88 | 1008.0 |
| 20260505100504 | 21 | 175 | 3.2 | 11.3 | 0.00 | 0.00 | 0.00 | 88 | 1008.0 |
| 20260505100004 | 21 | 184 | 3.2 | 14.5 | 0.00 | 0.00 | 0.00 | 88 | 1007.9 |
| 20260505095504 | 21 | 199 | 3.2 | 14.5 | 0.00 | 0.00 | 0.00 | 88 | 1008.0 |
| 20260505094003 | 21 | 208 | 3.2 | 11.3 | 0.00 | 0.00 | 0.00 | 88 | 1007.9 |
| 20260505093504 | 21 | 204 | 3.2 | 14.5 | 0.00 | 0.00 | 0.00 | 88 | 1008.0 |
| 20260505093004 | 21 | 202 | 1.6 | 14.5 | 0.00 | 0.00 | 0.00 | 88 | 1008.1 |